Showing default

FLOCK 4BE 34, 60495

Orbit data source: Space-Track

FLOCK 4BE 34, 60495 is a payload satellite owned by Planet (US) in SSO that was launched on Fri, 16 Aug 2024 UTC via an FALCON 9 launch vehicle from the Air Force Western Test Range (AFWTR). Payloads include a variety of satellites, spacecraft, and rockets equipped with specific instruments for various scientific and technological missions. These include communications satellites like Starlink; space stations such as the ISS; scientific satellites like the Hubble; Earth observation satellites from companies like Planet Labs, Umbra, and HawkEye 360; GPS; miniature CubeSats for education and research; and military/defense satellites.

Loading next visibility...
FLOCK 4BE 34 details
Identifier
60495, 2024-149AD
Orbit
SSO
Last TLE update18 hours ago
Origin
Flag of USPlanet (US)
ManufacturerPlanet
MissionOperational spacecraft
Bus & MotorCUBESAT 3U, Unknown motor
Mass5.7 kg wet, 5.7 kg dry
Launch date (UTC)
2024-08-16 (4 months ago)
Launch vehicle
FALCON 9
Launch site
Air Force Western Test Range (AFWTR)
Object type
Payload
Rocket body
Debris
Shape & HBRUnknown
Radar Cross SectionMedium (>0.1 m² and <1 m²)

Expand to show TLE details & history

TLE from 18 hours ago
0 FLOCK 4BE 34
1 60495U 24149AD  24355.85540432  .00008819  00000-0  39308-3 0  9996
2 60495  97.4315  69.6161 0005577  50.3705 309.8023 15.21640843 19142
Epoch: 2024-12-20T20:31Z
Definitive object data (Epoch: 2024-12-20T20:31:46.933Z)
Latitude0.00005°
Longitude31.75561°
Altitude501.528 km
Speed7.615 km/s
True Right ascension04h 38m 27s
True Declination0° 00' 00"
Sunlit
Object was in full shadow at TLE epoch
Visualization TLE readout
Latitude43.67677°
Longitude25.36289°
Altitude503.607 km
Speed7.619 km/s
Apparent Right ascension02h 40m 49s
Apparent Declination4° 09' 04"
Sunlit
Object is in full shadow
Visualization observer readout
Local Sidereal Time13:07:02
Azimuth328.305° NNW
Elevation-40.948°
Doppler factor1
Orbital elements
Apogee altitude501.69 km
Perigee altitude494.021 km
Semi-major axis6,875.993 km
Eccentricity0.0005577
Inclination97.4315°
RAAN69.6161°
Arg. of periapsis50.3705°
True anomaly309.75318°
Mean anomaly309.8023°
Eccentric anomaly309.77774°
Mean motion3.80662 °/min
BSTAR0.00039308
Orbital period94.57 mins
Loading maneuver chart data...
Loading historical data...
Loading historical data...
Loading historical data...
Loading historical data...
Loading historical data...
Loading historical data...
Loading historical data...

FLOCK 4BE 34 Visibility forecast

Observer location: undefined°, undefined

Span
Click to sort rows by Start time (UTC) header in descending order
Start Az.
Max El. time (UTC)
Max El. Az.
Max El.
End time (UTC)
End Az.
6 mins2024-12-21 17:36:57.984Z31.835° NE2024-12-21 17:39:57.984Z110.075° ESE32.693°2024-12-21 17:42:57.984Z168.832° S
4 mins2024-12-22 05:48:57.984Z220.337° SW2024-12-22 05:50:57.984Z274.11° WNW25.051°2024-12-22 05:52:57.984Z316.221° NNW
|